Weather History for KLWC - July, 2013

Change the Weather History Date:

Wednesday, July 10, 2013

  Actual Average Record
Temperature  
Mean Temperature 82 °F 78 °F  
Max Temperature 94 °F 89 °F 100 °F (2011)
Min Temperature 69 °F 67 °F 50 °F (1996)
Degree Days  
Heating Degree Days 0 0  
Month to date heating degree days 0 0  
Since 1 June heating degree days 13 8  
Since 1 July heating degree days 0 0  
Cooling Degree Days 17 13  
Month to date cooling degree days 135 126  
Year to date cooling degree days 574 520  
Since 1 June cooling degree days 447 401  
Growing Degree Days 32 (Base 50)    
Moisture  
Dew Point 66 °F    
Average Humidity 60    
Maximum Humidity 84    
Minimum Humidity 36    
Precipitation  
Precipitation 0.00 in 0.15 in 0.35 in (2006)
Month to date precipitation 0.21 1.61  
Year to date precipitation 15.87 20.96  
Sea Level Pressure  
Sea Level Pressure 29.97 in    
Wind  
Wind Speed 6 mph (NNE)    
Max Wind Speed 23 mph    
Max Gust Speed 30 mph    
Visibility 10 miles    
Events      
T = Trace of Precipitation, MM = Missing Value Source: NWS Daily Summary

Daily Weather History Graph

Daily Weather History Graph

Search for Another Location

Airport or City:

Trip Planner

Search our weather history database for the weather conditions in past years. The results will help you decide how hot, cold, wet, or windy it might be!

Date:

Astronomy

Jul. 10, 2013 Rise Set
Actual Time 6:04 AM CDT 8:48 PM CDT
Civil Twilight 5:32 AM CDT 9:19 PM CDT
Nautical Twilight 4:53 AM CDT 9:58 PM CDT
Astronomical Twilight 4:08 AM CDT 10:43 PM CDT
Moon 8:24 AM CDT (7/10) 10:00 PM CDT (7/10)
Length of Visible Light 15h 46m
Length of Day
14h 43m
Waxing Crescent, 5% of the Moon is Illuminated
Jul 10
Waxing Crescent
Jul 15
First Quarter
Jul 22
Full
Jul 29
Last Quarter
Aug 6
New

Hourly Weather History & Observations

Time (CDT) Temp. Heat Index Dew Point Humidity Pressure Visibility Wind Dir Wind Speed Gust Speed Precip Events Conditions
12:52 AM 86.0 °F 87.6 °F 64.9 °F 49% 29.89 in 10.0 mi WSW 11.5 mph 20.7 mph N/A   Clear
1:52 AM 82.0 °F 84.1 °F 66.0 °F 58% 29.93 in 10.0 mi NNW 11.5 mph 29.9 mph N/A   Clear
1:59 AM 82.4 °F 84.6 °F 66.2 °F 58% 29.95 in 10.0 mi NW 13.8 mph - N/A   Clear
2:52 AM 82.0 °F 83.8 °F 64.9 °F 56% 29.88 in 10.0 mi West 11.5 mph - N/A   Partly Cloudy
3:52 AM 81.0 °F 83.0 °F 66.0 °F 60% 29.91 in 10.0 mi NNE 6.9 mph 16.1 mph N/A   Clear
4:52 AM 75.9 °F - 66.9 °F 74% 29.93 in 10.0 mi Calm Calm - N/A   Clear
5:52 AM 72.0 °F - 66.9 °F 84% 29.93 in 10.0 mi Calm Calm - N/A   Clear
6:52 AM 73.0 °F - 64.9 °F 76% 29.94 in 10.0 mi Calm Calm - N/A   Clear
7:52 AM 80.1 °F 82.1 °F 66.0 °F 62% 29.97 in 10.0 mi NNW 3.5 mph - N/A   Clear
8:52 AM 82.0 °F 85.5 °F 69.1 °F 65% 29.98 in 10.0 mi NNW 3.5 mph - N/A   Clear
9:52 AM 86.0 °F 92.2 °F 72.0 °F 63% 30.00 in 10.0 mi NE 5.8 mph - N/A   Clear
10:52 AM 84.9 °F 90.1 °F 71.1 °F 63% 30.01 in 10.0 mi ENE 10.4 mph - N/A   Overcast
11:52 AM 86.0 °F 90.7 °F 70.0 °F 59% 30.02 in 10.0 mi NNE 11.5 mph - N/A   Mostly Cloudy
12:52 PM 89.1 °F 96.0 °F 72.0 °F 57% 30.02 in 10.0 mi NE 11.5 mph 18.4 mph N/A   Partly Cloudy
1:52 PM 91.0 °F 98.2 °F 72.0 °F 53% 30.00 in 10.0 mi East 8.1 mph - N/A   Clear
2:52 PM 93.0 °F 94.6 °F 64.0 °F 38% 30.00 in 10.0 mi NE 11.5 mph - N/A   Clear
3:52 PM 93.0 °F 93.8 °F 62.1 °F 36% 29.99 in 10.0 mi NE 11.5 mph 17.3 mph N/A   Clear
4:52 PM 91.9 °F 91.8 °F 61.0 °F 35% 29.98 in 10.0 mi NE 4.6 mph 17.3 mph N/A   Clear
5:52 PM 91.0 °F 92.6 °F 64.0 °F 41% 29.96 in 10.0 mi ENE 8.1 mph - N/A   Clear
6:52 PM 90.0 °F 91.3 °F 64.0 °F 42% 29.95 in 10.0 mi NE 5.8 mph - N/A   Clear
7:52 PM 87.1 °F 88.3 °F 64.0 °F 46% 29.95 in 10.0 mi NE 4.6 mph - N/A   Clear
8:52 PM 80.1 °F 81.9 °F 64.9 °F 60% 29.97 in 10.0 mi NNE 4.6 mph - N/A   Clear
9:52 PM 73.9 °F - 64.9 °F 73% 29.98 in 10.0 mi Calm Calm - N/A   Clear
10:52 PM 72.0 °F - 64.9 °F 78% 30.00 in 9.0 mi NE 3.5 mph - N/A   Clear
11:52 PM 69.1 °F - 64.0 °F 84% 30.01 in 9.0 mi NE 4.6 mph - N/A   Clear